www.pogodaiklimat.ru

Погода и климат >> Архив погоды >> Канада >> Henderickson Auto


ПОГОДА в Henderickson Auto

  • Прогноз погоды в Henderickson Auto
  • Монитор погоды в Henderickson Auto
  • Климат города

АРХИВ ПОГОДЫ в Henderickson Auto

Время (UTC), дата Ветер
(напр.,м/с)
 
Видим.   Явления Облачность Т
(С)
Тd
(С)
f
(%)
Тe
(С)
Тes
(С)
Комфортность P
(гПа)
Po
(гПа)
Тmin
(С)
Tmax
(С)
R
(мм)
R24
(мм)
S
(см)
00 14.01 З 4 н/о н/о +2.3 -3.1 67 -2 -2 1024.9 857.3 -13.8 +2.9
03 14.01 СЗ 2 н/о н/о +0.8 -0.5 91 -2 -2 1026.5 858.7
06 14.01 СЗ 1 н/о н/о +0.2 -0.3 96 -2 -2 1025.6 858.6 -13.8 +2.9 20
09 14.01 штиль 0 н/о н/о -1.6 -2.0 97 -3 -3 1027.5 860.0
12 14.01 штиль 0 н/о н/о -0.6 -0.9 98 -2 -2 1028.4 860.9 -2.3 +2.9 41
15 14.01 штиль 0 н/о н/о -1.2 -1.6 97 -3 -3 1029.1 861.1 0.2
18 14.01 СЗ 1 н/о {осадки} н/о +0.7 +0.1 96 0 0 1030.0 862.1 -2.3 +0.7 0.2
21 14.01 ЮВ 1 н/о н/о +0.7 +0.2 96 -1 -1 1029.9 861.7 0.2
00 15.01 В 2 н/о н/о -0.1 -0.4 98 -3 -3 1030.4 862.2 -2.3 +1.6 0.2
03 15.01 ЮВ 2 н/о н/о -0.4 -0.7 98 -4 -4 1029.4 861.2
06 15.01 ЮВ 2 н/о н/о -2.5 -2.8 98 -6 -6 1028.2 860.2 -2.5 +1.6
09 15.01 Ю 1 н/о н/о -4.0 -4.6 96 -5 -5 1026.6 858.6
12 15.01 штиль 0 н/о н/о -9.0 -10.3 90 -10 -10 1026.7 857.7 -9.1 +1.6 40
15 15.01 З 1 н/о н/о -12.7 -14.3 88 -15 -15 1025.5 856.1
18 15.01 штиль 0 н/о н/о -5.7 -6.7 93 -7 -7 1023.7 855.4 -13.1 -2.5
21 15.01 СЗ 1 н/о н/о +3.4 +1.2 85 +3 +3 1020.1 853.6 0.6
00 16.01 З 1 н/о {осадки} н/о -2.5 -3.1 96 -5 -5 1021.4 852.9 -13.1 +4.5 0.6
03 16.01 З 1 н/о н/о -8.1 -9.0 93 -9 -9 1021.6 851.6
06 16.01 З 1 н/о н/о -10.5 -11.5 92 -13 -13 1019.3 850.4 -13.1 +4.5
09 16.01 З 1 н/о н/о -11.6 -13.1 89 -12 -12 1015.6 848.6
12 16.01 СЗ 1 н/о н/о -9.5 -10.5 92 -10 -10 1016.3 848.6 -12.1 +4.5 40
15 16.01 СЗ 1 н/о н/о -11.3 -12.7 89 -14 -14 1016.9 847.9
18 16.01 З 1 н/о н/о -4.6 -5.5 93 -7 -7 1016.3 848.1 -12.1 -4.6
21 16.01 С 1 н/о н/о +6.0 +2.2 77 +6 +6 1012.1 846.1
00 17.01 С 1 н/о н/о +4.0 -1.8 66 +3 +3 1011.7 845.8 -12.1 +10.2
03 17.01 СЗ 1 н/о н/о +0.4 -2.0 84 -2 -2 1013.7 846.6
06 17.01 З 1 н/о н/о -0.5 -3.5 80 -3 -3 1013.9 847.7 -12.1 +10.2
09 17.01 СЗ 2 н/о н/о -2.8 -6.7 74 -6 -6 1013.7 848.8
12 17.01 З 2 н/о н/о -5.8 -9.1 77 -9 -9 1014.6 848.8 -7.4 +10.2 40
15 17.01 СЗ 2 н/о н/о -4.8 -12.2 56 -7 -7 1013.6 846.6
18 17.01 ЮЗ 2 н/о н/о -1.3 -9.6 53 -4 -4 1010.3 845.2 -11.6 -0.5
21 17.01 Ю 1 н/о н/о +3.3 -7.4 45 +4 +4 1006.3 842.2
00 18.01 ЮВ 2 н/о н/о +0.9 -5.9 60 -1 -1 1004.1 839.5 -11.6 +5.2
03 18.01 С 1 н/о н/о -2.4 -5.7 78 -3 -3 1002.1 836.5
06 18.01 Ю 3 н/о н/о +5.1 -4.8 49 +2 +2 996.7 834.7 -11.6 +5.7 6
09 18.01 З 1 н/о н/о -3.7 -5.2 89 -4 -4 995.8 833.3
12 18.01 н/о н/о -4.7 -6.1 90 994.8 831.9 -7.0 +5.7 40
15 18.01 ЮЗ 1 н/о н/о -7.7 -8.6 93 -8 -8 997.0 832.8
18 18.01 СЗ 1 н/о н/о -1.8 -4.9 79 -4 -4 994.2 832.5 -9.6 +5.2
21 18.01 З 3 н/о н/о +3.2 -10.0 37 0 0 994.6 832.2
00 19.01 З 3 н/о н/о +1.1 -11.4 39 -2 -2 996.2 833.1 -9.6 +4.8
03 19.01 СЗ 1 н/о н/о -5.0 -10.7 64 -7 -7 998.2 833.4
06 19.01 С 1 н/о н/о -7.6 -10.2 82 -10 -10 998.3 834.0 -9.6 +5.2 23
09 19.01 З 2 н/о н/о -10.3 -12.0 87 -14 -14 998.8 834.7
12 19.01 З 1 н/о н/о -8.2 -10.2 85 -11 -11 999.0 834.9 -10.6 +5.2 40
15 19.01 З 3 н/о н/о -0.8 -9.7 51 -5 -5 999.2 835.3
18 19.01 З 4 н/о н/о -0.1 -9.4 50 -5 -5 1000.8 836.3 -10.6 -0.1
21 19.01 З 3 н/о н/о +0.4 -9.7 47 -4 -4 1001.9 836.9
00 20.01 З 2 н/о н/о -0.7 -10.2 49 -4 -4 1002.4 837.5 -10.6 +1.0
03 20.01 З 1 н/о н/о -3.1 -9.9 59 -3 -3 1002.1 838.0
06 20.01 З 1 н/о н/о -7.4 -10.4 79 -8 -8 1003.4 838.5 -10.6 +1.0 19
09 20.01 З 1 н/о н/о -8.4 -10.8 83 -9 -9 1004.1 839.0
12 20.01 З 1 н/о н/о -9.4 -11.3 86 -10 -10 1004.9 839.4 -9.4 +1.0 40
15 20.01 штиль 0 н/о н/о -8.8 -10.8 85 -9 -9 1006.0 840.0
18 20.01 штиль 0 н/о н/о -4.7 -7.9 78 -6 -6 1006.9 840.7 -10.0 -4.7
21 20.01 ЮВ 1 н/о н/о -0.4 -7.1 61 -1 -1 1006.5 840.9

 

Местоположение метеостанции Henderickson Auto (Канада): широта 53.78 долгота -118.40 высота над уровнем моря 1432 м.

В архиве по умолчанию представлена погода в Henderickson Auto за последнюю неделю. Архивные данные за месяц целиком и за предыдущие месяцы, начиная с января 2011 года, Вы можете получить, выбрав интересующий диапазон дат из раскрывающегося списка и нажав кнопку "Ввод!".

Внимание! Время в таблицах - всемирное. Для получения местного времени необходимо прибавить поправку, которая в Henderickson Auto равна -7 ч.

Смотрите также архив погоды в соседних городах и на ближайших метеорологических станциях:

Погода в Willow Creek 1 (Канада) (45 км)
Погода в Jasper Warden (Канада) (98 км)
Погода в Jasper (Канада) (104 км)
Погода в Edson AB (Канада) (134 км)
Погода в Grande Prairie (Канада) (158 км)
Погода в Valley View Agdm (Канада) (166 км)
Погода в Beaverlodge Cda (Канада) (171 км)
Погода в Teepee Creek Agcm (Канада) (175 км)
Погода в Whitecourt (Канада) (181 км)
Погода в Whitecourt Alta (Канада) (181 км)

Пояснения к столбцам:

Ветер - указаны скорость ветра в м/с - средняя за 10 мин, порывы в срок и между сроками (в фигурных скобках) и направление, откуда дует ветер: С - северный, СВ - северо-восточный, В - восточный, ЮВ - юго-восточный, Ю - южный, ЮЗ - юго-западный, З - западный, СЗ - северо-западный.
Видимость - горизонтальная дальность видимости в метрах или километрах. При видимости от 1 до 10 км при отсутствии осадков обычно наблюдается дымка, при ухудшении видимости до 1 км и менее - туман. В сухую погоду видимость может ухудшаться дымом, пылью или мглою.
Явления - указаны атмосферные явления, наблюдавшиеся в срок или в последний час перед сроком; фигурными скобками обозначены явления, наблюдавшиеся между сроками (за 1-3 часа до срока); квадратными скобками обозначены град или гололедные отложения с указанием их диаметра в мм.
Облачность - указаны через наклонную черту общая и нижняя облачность в баллах и высота нижней границы облаков в метрах; квадратными скобками обозначены формы облаков: Ci - перистые, Cs - перисто-слоистые, Cc - перисто-кучевые, Ac - высококучевые, As - высокослоистые, Sc - слоисто-кучевые, Ns - слоисто-дождевые, Cu - кучевые, Cb - кучево-дождевые. Подробнее классификацию облаков см. в Атласе облаков (PDF).
T - Температура воздуха - температура, измеренная на высоте 2 м над землей.
Td - Температура точки росы - температура, при понижении до которой содержащийся в воздухе водяной пар достигнет насыщения.
f - Относительная влажность воздуха - влажноcть воздуха, измеренная на высоте 2 м над землей.
Te - Эффективная температура - температура, которую ощущает одетый по сезону человек в тени. Характеристика душности погоды. При расчете учитывается влияние влажности воздуха и скорости ветра на теплоощущения человека.
Tes - Эффективная температура на солнце - температура, которую ощущает человек, с поправкой на солнечный нагрев. Характеристика знойности погоды. Зависит от высоты солнца над горизонтом, облачности и скорости ветра. Ночью, в пасмурную погоду, а также при ветре 12 м/с и более поправка равна нулю.
P - Атмосферное давление - приведенное к уровню моря атмосферное давление.
Po - Атмосферное давление - измеренное на уровне метеостанции атмосферное давление.
Tmin - Минимальная температура - минимум температуры воздуха на высоте 2 м над землей.
Tmax - Максимальная температура - максимум температуры воздуха на высоте 2 м над землей.
R - Количество осадков - Количество выпавших осадков за период времени, мм. При наведении курсора мыши на число - период времени, за который выпало указанное количество осадков.
R24 - Количество осадков - Количество выпавших осадков за 24 часа, мм.
S - Снежный покров - Высота снежного покрова, см. При наведении курсора мыши на число - состояние снежного покрова и степень покрытия местности в баллах.